Weather History for K1F0 - May, 2014

Change the Weather History Date:

Thursday, May 1, 2014

  Actual Average (KADM) Record (KADM)
Temperature  
Mean Temperature 53 °F -  
Max Temperature 69 °F 76 °F 95 °F (2002)
Min Temperature 37 °F 56 °F 33 °F (2014)
Degree Days  
Heating Degree Days 12    
Growing Degree Days 3 (Base 50)    
Moisture  
Dew Point 32 °F    
Average Humidity 47    
Maximum Humidity 87    
Minimum Humidity 21    
Precipitation  
Precipitation 0.00 in - - ()
Sea Level Pressure  
Sea Level Pressure 30.10 in    
Wind  
Wind Speed 2 mph (NNW)    
Max Wind Speed 9 mph    
Max Gust Speed 16 mph    
Visibility 10 miles    
Events      
Averages and records for this station are not official NWS values.
T = Trace of Precipitation, MM = Missing Value Source: NWS Daily Summary

Daily Weather History Graph

Daily Weather History Graph

Search for Another Location

Airport or City:

Trip Planner

Search our weather history database for the weather conditions in past years. The results will help you decide how hot, cold, wet, or windy it might be!

Date:

Astronomy

May. 01, 2014 Rise Set
Actual Time 6:39 AM CDT 8:12 PM CDT
Civil Twilight 6:12 AM CDT 8:39 PM CDT
Nautical Twilight 5:40 AM CDT 9:11 PM CDT
Astronomical Twilight 5:06 AM CDT 9:45 PM CDT
Moon 8:30 AM CDT (5/1) 10:44 PM CDT (5/1)
Length of Visible Light 14h 27m
Length of Day
13h 33m
Waxing Crescent, 7% of the Moon is Illuminated
May 1
Waxing Crescent
May 6
First Quarter
May 14
Full
May 21
Last Quarter
May 28
New

Hourly Weather History & Observations

Time (CDT) Temp. Windchill Dew Point Humidity Pressure Visibility Wind Dir Wind Speed Gust Speed Precip Events Conditions
12:15 AM 42.8 °F - 35.6 °F 76% 30.15 in 10.0 mi Calm Calm - N/A   Clear
12:35 AM 42.8 °F - 33.8 °F 70% 30.15 in 10.0 mi Calm Calm - N/A   Clear
1:15 AM 42.8 °F - 35.6 °F 76% 30.15 in 10.0 mi Calm Calm - N/A   Clear
1:35 AM 41.0 °F - 35.6 °F 81% 30.15 in 10.0 mi Calm Calm - N/A   Clear
1:55 AM 41.0 °F - 33.8 °F 76% 30.15 in 10.0 mi Calm Calm - N/A   Clear
2:15 AM 39.2 °F - 35.6 °F 87% 30.14 in 10.0 mi Calm Calm - N/A   Clear
2:35 AM 41.0 °F - 33.8 °F 76% 30.13 in 10.0 mi Calm Calm - N/A   Clear
2:55 AM 42.8 °F - 32.0 °F 66% 30.13 in 10.0 mi Calm Calm - N/A   Clear
3:15 AM 41.0 °F 39.0 °F 32.0 °F 70% 30.13 in 10.0 mi NW 3.5 mph - N/A   Clear
3:35 AM 41.0 °F - 32.0 °F 70% 30.14 in 10.0 mi Calm Calm - N/A   Clear
3:55 AM 41.0 °F 39.0 °F 32.0 °F 70% 30.14 in 10.0 mi WNW 3.5 mph - N/A   Clear
4:15 AM 41.0 °F - 32.0 °F 70% 30.14 in 10.0 mi Calm Calm - N/A   Clear
4:35 AM 39.2 °F - 32.0 °F 75% 30.14 in 10.0 mi Calm Calm - N/A   Clear
4:55 AM 41.0 °F - 32.0 °F 70% 30.14 in 10.0 mi Calm Calm - N/A   Clear
5:15 AM 39.2 °F 37.0 °F 32.0 °F 75% 30.14 in 10.0 mi WNW 3.5 mph - N/A   Clear
5:35 AM 39.2 °F 37.0 °F 32.0 °F 75% 30.15 in 10.0 mi WNW 3.5 mph - N/A   Clear
5:55 AM 39.2 °F 35.0 °F 32.0 °F 75% 30.15 in 10.0 mi NNE 5.8 mph - N/A   Clear
6:15 AM 41.0 °F - 32.0 °F 70% 30.15 in 10.0 mi Calm Calm - N/A   Clear
6:35 AM 37.4 °F - 32.0 °F 81% 30.15 in 10.0 mi Calm Calm - N/A   Clear
6:55 AM 39.2 °F - 32.0 °F 75% 30.16 in 10.0 mi Calm Calm - N/A   Clear
7:15 AM 41.0 °F 39.0 °F 32.0 °F 70% 30.16 in 10.0 mi WNW 3.5 mph - N/A   Clear
7:35 AM 41.0 °F - 32.0 °F 70% 30.17 in 10.0 mi Calm Calm - N/A   Clear
7:55 AM 44.6 °F - 33.8 °F 66% 30.17 in 10.0 mi Calm Calm - N/A   Clear
8:15 AM 48.2 °F - 33.8 °F 58% 30.17 in 10.0 mi Calm Calm - N/A   Clear
8:35 AM 51.8 °F - 32.0 °F 47% 30.17 in 10.0 mi Calm Calm - N/A   Clear
8:55 AM 53.6 °F - 33.8 °F 47% 30.18 in 10.0 mi NE 6.9 mph - N/A   Clear
9:15 AM 53.6 °F - 32.0 °F 44% 30.17 in 10.0 mi NNW 6.9 mph - N/A   Clear
9:35 AM 55.4 °F - 30.2 °F 38% 30.17 in 10.0 mi North 5.8 mph - N/A   Clear
9:55 AM 59.0 °F - 30.2 °F 34% 30.17 in 10.0 mi North 5.8 mph - N/A   Clear
10:15 AM 60.8 °F - 26.6 °F 27% 30.17 in 10.0 mi North 6.9 mph - N/A   Clear
10:35 AM 60.8 °F - 28.4 °F 29% 30.17 in 10.0 mi NW 8.1 mph - N/A   Clear
10:55 AM 60.8 °F - 26.6 °F 27% 30.17 in 10.0 mi North 9.2 mph - N/A   Clear
11:15 AM 62.6 °F - 28.4 °F 27% 30.17 in 10.0 mi NNW 9.2 mph - N/A   Clear
11:35 AM 64.4 °F - 28.4 °F 26% 30.15 in 10.0 mi North 6.9 mph - N/A   Clear
11:55 AM 62.6 °F - 26.6 °F 26% 30.15 in 10.0 mi NNW 9.2 mph - N/A   Clear
12:15 PM 64.4 °F - 28.4 °F 26% 30.14 in 10.0 mi NW 6.9 mph - N/A   Clear
12:35 PM 64.4 °F - 28.4 °F 26% 30.13 in 10.0 mi NNW 9.2 mph - N/A   Clear
12:55 PM 66.2 °F - 28.4 °F 24% 30.13 in 10.0 mi NNW 6.9 mph - N/A   Clear
1:15 PM 66.2 °F - 28.4 °F 24% 30.12 in 10.0 mi North 5.8 mph - N/A   Clear
1:35 PM 66.2 °F - 28.4 °F 24% 30.11 in 10.0 mi North 5.8 mph - N/A   Clear
1:55 PM 66.2 °F - 28.4 °F 24% 30.10 in 10.0 mi North 8.1 mph 16.1 mph N/A   Clear
2:15 PM 68.0 °F - 28.4 °F 23% 30.10 in 10.0 mi NNW 6.9 mph - N/A   Clear
2:35 PM 68.0 °F - 28.4 °F 23% 30.08 in 10.0 mi NW 8.1 mph - N/A   Clear
2:55 PM 68.0 °F - 28.4 °F 23% 30.08 in 10.0 mi North 5.8 mph - N/A   Clear
3:15 PM 68.0 °F - 28.4 °F 23% 30.07 in 10.0 mi NNW 9.2 mph - N/A   Clear
3:35 PM 68.0 °F - 30.2 °F 24% 30.07 in 10.0 mi WNW 4.6 mph - N/A   Clear
3:55 PM 68.0 °F - 30.2 °F 24% 30.05 in 10.0 mi Calm Calm - N/A   Clear
4:15 PM 68.0 °F - 30.2 °F 24% 30.05 in 10.0 mi North 5.8 mph - N/A   Clear
4:35 PM 68.0 °F - 28.4 °F 23% 30.04 in 10.0 mi North 5.8 mph - N/A   Clear
4:55 PM 69.8 °F - 30.2 °F 23% 30.04 in 10.0 mi NW 5.8 mph - N/A   Clear
5:15 PM 69.8 °F - 30.2 °F 23% 30.03 in 10.0 mi NW 3.5 mph - N/A   Scattered Clouds
5:35 PM 69.8 °F - 30.2 °F 23% 30.02 in 10.0 mi WNW 9.2 mph - N/A   Clear
5:55 PM 69.8 °F - 28.4 °F 21% 30.02 in 10.0 mi NNW 6.9 mph - N/A   Clear
6:15 PM 68.0 °F - 28.4 °F 23% 30.02 in 10.0 mi NNW 3.5 mph - N/A   Clear
6:35 PM 68.0 °F - 28.4 °F 23% 30.01 in 10.0 mi Calm Calm - N/A   Clear
6:55 PM 68.0 °F - 28.4 °F 23% 30.01 in 10.0 mi Calm Calm - N/A   Clear
7:15 PM 68.0 °F - 28.4 °F 23% 30.01 in 10.0 mi Calm Calm - N/A   Clear
7:35 PM 66.2 °F - 30.2 °F 26% 30.02 in 10.0 mi Calm Calm - N/A   Clear
7:55 PM 64.4 °F - 32.0 °F 30% 30.02 in 10.0 mi Calm Calm - N/A   Clear
8:15 PM 59.0 °F - 33.8 °F 39% 30.03 in 10.0 mi Calm Calm - N/A   Clear
8:35 PM 55.4 °F - 35.6 °F 47% 30.03 in 10.0 mi Calm Calm - N/A   Clear
8:55 PM 55.4 °F - 35.6 °F 47% 30.04 in 10.0 mi Calm Calm - N/A   Clear
9:15 PM 53.6 °F - 35.6 °F 51% 30.04 in 10.0 mi Calm Calm - N/A   Clear
9:35 PM 53.6 °F - 35.6 °F 51% 30.05 in 10.0 mi Calm Calm - N/A   Clear
9:55 PM 51.8 °F - 35.6 °F 54% 30.05 in 10.0 mi Calm Calm - N/A   Clear
10:15 PM 50.0 °F - 37.4 °F 62% 30.05 in 10.0 mi Calm Calm - N/A   Clear
10:35 PM 50.0 °F - 37.4 °F 62% 30.05 in 10.0 mi Calm Calm - N/A   Clear
10:55 PM 50.0 °F - 37.4 °F 62% 30.05 in 10.0 mi Calm Calm - N/A   Clear
11:15 PM 50.0 °F - 37.4 °F 62% 30.05 in 10.0 mi Calm Calm - N/A   Clear
11:35 PM 46.4 °F - 37.4 °F 71% 30.05 in 10.0 mi Calm Calm - N/A   Clear
11:55 PM 46.4 °F - 37.4 °F 71% 30.05 in 10.0 mi Calm Calm - N/A   Clear